Time,TemperatureF,DewpointF,PressureIn,WindDirection,WindDirectionDegrees,WindSpeedMPH,WindSpeedGustMPH,Humidity,HourlyPrecipIn,Conditions,Clouds,dailyrainin,SoftwareType,DateUTC
2013-07-01 00:01:00,68.0,64.6,29.84,NNE,22,0.4,3.6,89,0.00,SKC,,0.00,WeatherDisplay:10.37,2013-07-01 04:01:00,
2013-07-01 00:02:00,68.0,64.3,29.84,NNE,22,3.0,4.6,88,0.00,SKC,,0.00,WeatherDisplay:10.37,2013-07-01 04:02:00,
2013-07-01 00:03:00,68.0,64.3,29.84,NNE,22,2.9,4.6,88,0.00,SKC,,0.00,WeatherDisplay:10.37,2013-07-01 04:03:00,
2013-07-01 00:04:00,68.0,64.3,29.84,NNE,22,0.9,4.6,88,0.00,SKC,,0.00,WeatherDisplay:10.37,2013-07-01 04:04:00,
2013-07-01 00:09:00,68.0,64.3,29.84,NNE,22,0.0,0.0,88,0.00,SKC,,0.00,WeatherDisplay:10.37,2013-07-01 04:09:00,
2013-07-01 00:14:00,68.0,64.6,29.84,NNE,22,0.0,0.0,89,0.00,SKC,,0.00,WeatherDisplay:10.37,2013-07-01 04:14:00,
2013-07-01 00:16:00,68.0,64.6,29.84,NNE,22,0.0,0.0,89,0.00,SKC,,0.00,WeatherDisplay:10.37,2013-07-01 04:16:00,
2013-07-01 00:21:00,68.0,64.6,29.84,NNE,22,0.0,0.0,89,0.00,SKC,,0.00,WeatherDisplay:10.37,2013-07-01 04:21:00,
2013-07-01 00:26:00,67.6,64.2,29.84,NNE,22,0.0,0.0,89,0.00,SKC,,0.00,WeatherDisplay:10.37,2013-07-01 04:26:00,
2013-07-01 00:31:00,67.5,64.1,29.83,NNE,22,0.0,0.0,89,0.00,SKC,,0.00,WeatherDisplay:10.37,2013-07-01 04:31:00,
2013-07-01 00:36:00,67.3,64.6,29.83,North,360,2.5,4.4,91,0.00,SKC,,0.00,WeatherDisplay:10.37,2013-07-01 04:36:00,
2013-07-01 00:41:00,67.1,64.4,29.82,NNE,22,2.7,3.6,91,0.00,SKC,,0.00,WeatherDisplay:10.37,2013-07-01 04:41:00,
2013-07-01 00:46:00,67.6,64.2,29.82,NNE,22,0.0,4.6,89,0.00,SKC,,0.00,WeatherDisplay:10.37,2013-07-01 04:46:00,
2013-07-01 00:51:00,67.6,64.2,29.82,NNE,22,0.0,0.0,89,0.00,SKC,,0.00,WeatherDisplay:10.37,2013-07-01 04:51:00,
2013-07-01 00:56:00,67.6,64.2,29.82,NNE,22,0.0,2.3,89,0.00,SKC,,0.00,WeatherDisplay:10.37,2013-07-01 04:56:00,
2013-07-01 01:01:00,67.6,64.2,29.82,NNE,22,0.0,0.0,89,0.00,SKC,,0.00,WeatherDisplay:10.37,2013-07-01 05:01:00,
2013-07-01 01:06:00,67.6,63.9,29.82,NNE,22,1.3,3.6,88,0.00,SKC,,0.00,WeatherDisplay:10.37,2013-07-01 05:06:00,
2013-07-01 01:11:00,68.0,64.3,29.82,NNE,22,1.7,4.6,88,0.00,SKC,,0.00,WeatherDisplay:10.37,2013-07-01 05:11:00,
2013-07-01 01:16:00,68.4,64.4,29.84,NNE,22,1.4,3.5,87,0.00,SKC,,0.00,WeatherDisplay:10.37,2013-07-01 05:16:00,
2013-07-01 01:21:00,68.2,64.2,29.84,NNE,22,0.0,0.0,87,0.00,SKC,,0.00,WeatherDisplay:10.37,2013-07-01 05:21:00,
2013-07-01 01:26:00,67.8,64.4,29.84,North,360,2.2,3.5,89,0.00,SKC,,0.00,WeatherDisplay:10.37,2013-07-01 05:26:00,
2013-07-01 01:31:00,67.5,64.1,29.83,North,360,0.0,0.0,89,0.00,SKC,,0.00,WeatherDisplay:10.37,2013-07-01 05:31:00,
2013-07-01 01:34:00,67.5,64.5,29.83,North,360,0.0,0.0,90,0.00,SKC,SKC,0.00,WeatherDisplay:10.37,2013-07-01 05:34:00,
2013-07-01 01:39:00,67.3,64.6,29.83,North,360,0.0,0.0,91,0.00,SKC,SKC,0.00,WeatherDisplay:10.37,2013-07-01 05:39:00,
2013-07-01 01:45:00,67.3,64.6,29.83,North,360,0.0,0.0,91,0.00,SKC,,0.00,WeatherDisplay:10.37,2013-07-01 05:45:00,
2013-07-01 01:50:00,66.9,64.2,29.83,North,360,0.0,0.0,91,0.00,SKC,,0.00,WeatherDisplay:10.37,2013-07-01 05:50:00,
2013-07-01 01:55:00,66.7,64.3,29.82,North,360,0.0,0.0,92,0.00,SKC,,0.00,WeatherDisplay:10.37,2013-07-01 05:55:00,
2013-07-01 02:00:00,66.7,64.3,29.82,North,360,0.0,0.0,92,0.00,SKC,,0.00,WeatherDisplay:10.37,2013-07-01 06:00:00,
2013-07-01 02:05:00,66.7,64.3,29.83,North,360,0.0,0.0,92,0.00,SKC,,0.00,WeatherDisplay:10.37,2013-07-01 06:05:00,
2013-07-01 02:10:00,66.7,64.3,29.83,North,360,0.0,0.0,92,0.00,SKC,,0.00,WeatherDisplay:10.37,2013-07-01 06:10:00,
2013-07-01 02:15:00,66.7,64.3,29.83,North,360,0.0,0.0,92,0.00,SKC,,0.00,WeatherDisplay:10.37,2013-07-01 06:15:00,
2013-07-01 02:20:00,66.6,64.2,29.83,North,360,0.0,0.0,92,0.00,SKC,,0.00,WeatherDisplay:10.37,2013-07-01 06:20:00,
2013-07-01 02:25:00,66.6,64.2,29.83,North,360,0.0,0.0,92,0.00,SKC,,0.00,WeatherDisplay:10.37,2013-07-01 06:25:00,
2013-07-01 02:30:00,66.4,64.3,29.82,North,360,0.0,0.0,93,0.00,SKC,,0.00,WeatherDisplay:10.37,2013-07-01 06:30:00,
2013-07-01 02:35:00,66.4,64.3,29.82,North,360,0.0,0.0,93,0.00,SKC,,0.00,WeatherDisplay:10.37,2013-07-01 06:35:00,
2013-07-01 02:40:00,66.4,64.3,29.82,North,360,0.0,0.0,93,0.00,SKC,,0.00,WeatherDisplay:10.37,2013-07-01 06:40:00,
2013-07-01 02:45:00,66.6,64.5,29.82,North,360,0.0,0.0,93,0.00,SKC,,0.00,WeatherDisplay:10.37,2013-07-01 06:45:00,
2013-07-01 02:50:00,66.6,64.5,29.82,North,360,0.0,0.0,93,0.00,SKC,,0.00,WeatherDisplay:10.37,2013-07-01 06:50:00,
2013-07-01 02:55:00,66.4,64.3,29.83,North,360,0.0,0.0,93,0.00,SKC,,0.00,WeatherDisplay:10.37,2013-07-01 06:55:00,
2013-07-01 03:00:00,66.4,64.3,29.83,North,360,0.0,2.3,93,0.00,SKC,,0.00,WeatherDisplay:10.37,2013-07-01 07:00:00,
2013-07-01 03:05:00,66.6,64.8,29.83,North,360,0.0,0.0,94,0.00,SKC,,0.00,WeatherDisplay:10.37,2013-07-01 07:05:00,
2013-07-01 03:10:00,66.4,64.6,29.83,North,360,0.0,0.0,94,0.00,SKC,,0.00,WeatherDisplay:10.37,2013-07-01 07:10:00,
2013-07-01 03:15:00,66.4,64.6,29.83,North,360,0.0,0.0,94,0.00,SKC,,0.00,WeatherDisplay:10.37,2013-07-01 07:15:00,
2013-07-01 03:20:00,66.4,64.6,29.83,North,360,0.0,0.0,94,0.00,SKC,,0.00,WeatherDisplay:10.37,2013-07-01 07:20:00,
2013-07-01 03:25:00,66.6,64.8,29.83,North,360,0.0,0.0,94,0.00,SKC,,0.00,WeatherDisplay:10.37,2013-07-01 07:25:00,
2013-07-01 03:30:00,66.6,64.8,29.82,North,360,0.0,0.0,94,0.00,SKC,,0.00,WeatherDisplay:10.37,2013-07-01 07:30:00,
2013-07-01 03:36:00,66.6,64.8,29.82,North,360,0.0,0.0,94,0.00,SKC,,0.00,WeatherDisplay:10.37,2013-07-01 07:36:00,
2013-07-01 03:41:00,66.6,64.8,29.82,North,360,0.0,0.0,94,0.00,SKC,,0.00,WeatherDisplay:10.37,2013-07-01 07:41:00,
2013-07-01 03:46:00,66.6,64.8,29.82,North,360,0.0,0.0,94,0.00,SKC,,0.00,WeatherDisplay:10.37,2013-07-01 07:46:00,
2013-07-01 03:52:00,66.6,64.8,29.83,North,360,0.0,0.0,94,0.00,SKC,,0.00,WeatherDisplay:10.37,2013-07-01 07:52:00,
2013-07-01 03:57:00,66.6,65.1,29.83,NNE,22,2.2,2.7,95,0.00,SKC,,0.00,WeatherDisplay:10.37,2013-07-01 07:57:00,
2013-07-01 04:02:00,66.7,65.2,29.83,NNE,22,0.0,0.0,95,0.00,SKC,,0.00,WeatherDisplay:10.37,2013-07-01 08:02:00,
2013-07-01 04:07:00,66.7,65.2,29.83,NNE,22,0.0,0.0,95,0.00,SKC,,0.00,WeatherDisplay:10.37,2013-07-01 08:07:00,
2013-07-01 04:12:00,66.7,65.2,29.83,NNE,22,0.0,0.0,95,0.00,SKC,,0.00,WeatherDisplay:10.37,2013-07-01 08:12:00,
2013-07-01 04:17:00,66.6,65.4,29.83,NNE,22,0.0,0.0,96,0.00,SKC,,0.00,WeatherDisplay:10.37,2013-07-01 08:17:00,
2013-07-01 04:22:00,66.4,65.5,29.83,NNE,22,0.0,0.0,97,0.00,SKC,,0.00,WeatherDisplay:10.37,2013-07-01 08:22:00,
2013-07-01 04:27:00,66.4,65.5,29.83,NNE,22,0.0,0.0,97,0.00,SKC,,0.00,WeatherDisplay:10.37,2013-07-01 08:27:00,
2013-07-01 04:32:00,66.2,65.3,29.83,NNE,22,0.0,0.0,97,0.00,SKC,,0.00,WeatherDisplay:10.37,2013-07-01 08:32:00,
2013-07-01 04:37:00,66.2,65.3,29.83,NNE,22,0.0,0.0,97,0.00,SKC,,0.00,WeatherDisplay:10.37,2013-07-01 08:37:00,
2013-07-01 04:42:00,66.2,65.3,29.83,NNE,22,0.0,0.0,97,0.00,SKC,,0.00,WeatherDisplay:10.37,2013-07-01 08:42:00,
2013-07-01 04:47:00,66.2,65.3,29.83,NNE,22,0.0,0.0,97,0.00,SKC,,0.00,WeatherDisplay:10.37,2013-07-01 08:47:00,
2013-07-01 04:52:00,66.0,65.1,29.84,NNE,22,0.0,0.0,97,0.00,SKC,,0.00,WeatherDisplay:10.37,2013-07-01 08:52:00,
2013-07-01 04:57:00,66.0,65.1,29.84,NNE,22,0.0,0.0,97,0.00,SKC,,0.00,WeatherDisplay:10.37,2013-07-01 08:57:00,
2013-07-01 05:02:00,66.0,65.4,29.84,NNE,22,0.0,0.0,98,0.00,SKC,,0.00,WeatherDisplay:10.37,2013-07-01 09:02:00,
2013-07-01 05:07:00,66.0,65.4,29.84,NNE,22,0.0,0.0,98,0.00,SKC,,0.00,WeatherDisplay:10.37,2013-07-01 09:07:00,
2013-07-01 05:12:00,66.0,65.4,29.84,NNE,22,0.0,0.0,98,0.00,SKC,,0.00,WeatherDisplay:10.37,2013-07-01 09:12:00,
2013-07-01 05:17:00,65.8,65.2,29.84,NNE,22,0.0,0.0,98,0.00,SKC,,0.00,WeatherDisplay:10.37,2013-07-01 09:17:00,
2013-07-01 05:22:00,65.8,65.2,29.84,NNE,22,0.0,0.0,98,0.00,SKC,,0.00,WeatherDisplay:10.37,2013-07-01 09:22:00,
2013-07-01 05:27:00,65.8,65.2,29.84,NNE,22,0.0,0.0,98,0.00,SKC,,0.00,WeatherDisplay:10.37,2013-07-01 09:27:00,
2013-07-01 05:32:00,65.8,65.2,29.85,NNE,22,0.0,0.0,98,0.00,SKC,,0.00,WeatherDisplay:10.37,2013-07-01 09:32:00,
2013-07-01 05:37:00,65.7,65.1,29.85,NNE,22,0.0,0.0,98,0.00,SKC,,0.00,WeatherDisplay:10.37,2013-07-01 09:37:00,
2013-07-01 05:42:00,65.7,65.4,29.84,NNE,22,0.0,0.0,99,0.00,SKC,,0.00,WeatherDisplay:10.37,2013-07-01 09:42:00,
2013-07-01 05:47:00,65.7,65.4,29.84,NNE,22,0.0,0.0,99,0.00,SKC,,0.00,WeatherDisplay:10.37,2013-07-01 09:47:00,
2013-07-01 05:52:00,65.7,65.4,29.85,NNE,22,0.0,0.0,99,0.00,SKC,,0.00,WeatherDisplay:10.37,2013-07-01 09:52:00,
2013-07-01 05:57:00,65.7,65.4,29.85,NNE,22,0.0,0.0,99,0.00,SKC,,0.00,WeatherDisplay:10.37,2013-07-01 09:57:00,
2013-07-01 06:02:00,65.7,65.4,29.85,NNE,22,0.0,0.0,99,0.00,SKC,,0.00,WeatherDisplay:10.37,2013-07-01 10:02:00,
2013-07-01 06:07:00,65.7,65.4,29.86,NNE,22,0.0,0.0,99,0.00,SKC,,0.00,WeatherDisplay:10.37,2013-07-01 10:07:00,
2013-07-01 06:12:00,65.7,65.4,29.86,NNE,22,0.0,0.0,99,0.01,RA,,0.01,WeatherDisplay:10.37,2013-07-01 10:12:00,
2013-07-01 06:13:00,65.7,65.4,29.86,NNE,22,0.0,0.0,99,0.01,RA,,0.01,WeatherDisplay:10.37,2013-07-01 10:13:00,
2013-07-01 06:18:00,65.7,65.4,29.86,NNE,22,0.0,0.0,99,0.01,RA,,0.01,WeatherDisplay:10.37,2013-07-01 10:18:00,
2013-07-01 06:23:00,65.7,65.4,29.86,NNE,22,0.0,0.0,99,0.01,RA,,0.01,WeatherDisplay:10.37,2013-07-01 10:23:00,
2013-07-01 06:28:00,65.8,65.5,29.86,NNE,22,0.0,0.0,99,0.02,RA,,0.02,WeatherDisplay:10.37,2013-07-01 10:28:00,
2013-07-01 06:33:00,65.8,65.5,29.86,NNE,22,0.0,0.0,99,0.03,RA,,0.03,WeatherDisplay:10.37,2013-07-01 10:33:00,
2013-07-01 06:38:00,66.0,65.7,29.86,NNE,22,0.0,0.0,99,0.03,RA,,0.03,WeatherDisplay:10.37,2013-07-01 10:38:00,
2013-07-01 06:43:00,66.0,65.7,29.86,NNE,22,0.0,0.0,99,0.03,RA,,0.03,WeatherDisplay:10.37,2013-07-01 10:43:00,
2013-07-01 06:48:00,66.0,65.7,29.86,NNE,22,0.0,0.0,99,0.03,BKN,,0.03,WeatherDisplay:10.37,2013-07-01 10:48:00,
2013-07-01 06:53:00,66.0,66.0,29.86,NNE,22,0.0,0.0,100,0.04,RA,,0.04,WeatherDisplay:10.37,2013-07-01 10:53:00,
2013-07-01 06:58:00,66.0,66.0,29.86,NNE,22,0.0,0.0,100,0.04,RA,,0.04,WeatherDisplay:10.37,2013-07-01 10:58:00,
2013-07-01 07:03:00,66.2,66.2,29.86,NNE,22,0.0,0.0,100,0.04,-RA,,0.04,WeatherDisplay:10.37,2013-07-01 11:03:00,
2013-07-01 07:08:00,66.2,66.2,29.86,NNE,22,0.0,0.0,100,0.04,-RA,,0.04,WeatherDisplay:10.37,2013-07-01 11:08:00,
2013-07-01 07:13:00,66.2,66.2,29.86,NNE,22,0.0,0.0,100,0.03,-RA,,0.04,WeatherDisplay:10.37,2013-07-01 11:13:00,
2013-07-01 07:18:00,66.2,66.2,29.88,NNE,22,0.0,0.0,100,0.03,-RA,,0.04,WeatherDisplay:10.37,2013-07-01 11:18:00,
2013-07-01 07:23:00,66.2,66.2,29.88,NNE,22,0.0,0.0,100,0.03,-RA,,0.04,WeatherDisplay:10.37,2013-07-01 11:23:00,
2013-07-01 07:28:00,66.4,66.4,29.87,NNE,22,0.0,0.0,100,0.02,-RA,,0.04,WeatherDisplay:10.37,2013-07-01 11:28:00,
2013-07-01 07:33:00,66.6,66.6,29.87,NNE,22,0.0,0.0,100,0.01,-RA,,0.04,WeatherDisplay:10.37,2013-07-01 11:33:00,
2013-07-01 07:38:00,66.7,66.7,29.87,NNE,22,0.0,0.0,100,0.01,-RA,,0.04,WeatherDisplay:10.37,2013-07-01 11:38:00,
2013-07-01 07:43:00,66.9,66.9,29.88,NNE,22,0.0,0.0,100,0.01,-RA,,0.04,WeatherDisplay:10.37,2013-07-01 11:43:00,
2013-07-01 07:48:00,66.9,66.9,29.88,NNE,22,0.0,0.0,100,0.01,-RA,,0.04,WeatherDisplay:10.37,2013-07-01 11:48:00,
2013-07-01 07:53:00,67.3,67.0,29.88,NNE,22,0.0,0.0,99,0.00,-RA,,0.04,WeatherDisplay:10.37,2013-07-01 11:53:00,
2013-07-01 07:58:00,67.3,67.0,29.88,NNE,22,0.0,0.0,99,0.00,-RA,,0.04,WeatherDisplay:10.37,2013-07-01 11:58:00,
2013-07-01 08:03:00,67.6,67.3,29.88,North,360,0.6,2.3,99,0.01,RA,,0.05,WeatherDisplay:10.37,2013-07-01 12:03:00,
2013-07-01 08:08:00,67.6,67.0,29.88,NW,315,3.2,3.6,98,0.01,RA,,0.05,WeatherDisplay:10.37,2013-07-01 12:08:00,
2013-07-01 08:13:00,67.6,67.0,29.88,West,270,3.3,5.8,98,0.01,RA,,0.05,WeatherDisplay:10.37,2013-07-01 12:13:00,
2013-07-01 08:18:00,67.5,66.9,29.89,West,270,3.5,6.9,98,0.01,BKN,,0.05,WeatherDisplay:10.37,2013-07-01 12:18:00,
2013-07-01 08:23:00,67.5,66.9,29.89,WSW,248,0.0,2.3,98,0.01,BKN,,0.05,WeatherDisplay:10.37,2013-07-01 12:23:00,
2013-07-01 08:28:00,67.5,66.9,29.89,West,270,1.6,5.8,98,0.02,RA,,0.06,WeatherDisplay:10.37,2013-07-01 12:28:00,
2013-07-01 08:33:00,67.6,67.0,29.89,North,360,3.3,4.6,98,0.02,RA,,0.06,WeatherDisplay:10.37,2013-07-01 12:33:00,
2013-07-01 08:38:00,67.5,66.9,29.89,WSW,248,3.3,5.8,98,0.03,RA,,0.07,WeatherDisplay:10.37,2013-07-01 12:38:00,
2013-07-01 08:43:00,67.5,66.9,29.89,WSW,248,2.3,3.6,98,0.03,RA,,0.07,WeatherDisplay:10.37,2013-07-01 12:43:00,
2013-07-01 08:48:00,67.6,67.0,29.89,SE,135,1.5,4.6,98,0.04,RA,,0.08,WeatherDisplay:10.37,2013-07-01 12:48:00,
2013-07-01 08:53:00,67.6,67.0,29.89,SE,135,0.0,0.0,98,0.05,RA,,0.09,WeatherDisplay:10.37,2013-07-01 12:53:00,
2013-07-01 08:58:00,67.8,67.2,29.89,SE,135,0.0,2.3,98,0.06,RA,,0.10,WeatherDisplay:10.37,2013-07-01 12:58:00,
2013-07-01 09:03:00,67.8,67.2,29.90,West,270,0.0,0.0,98,0.05,-RA,,0.10,WeatherDisplay:10.37,2013-07-01 13:03:00,
2013-07-01 09:08:00,67.8,67.2,29.90,West,270,0.0,0.0,98,0.06,-RA,,0.11,WeatherDisplay:10.37,2013-07-01 13:08:00,
2013-07-01 09:13:00,67.8,66.9,29.90,West,270,0.0,0.0,97,0.06,-RA,,0.11,WeatherDisplay:10.37,2013-07-01 13:13:00,
2013-07-01 09:18:00,67.8,66.9,29.90,West,270,0.0,0.0,97,0.06,-RA,,0.11,WeatherDisplay:10.37,2013-07-01 13:18:00,
2013-07-01 09:23:00,67.8,66.9,29.90,West,270,0.0,0.0,97,0.06,-RA,,0.11,WeatherDisplay:10.37,2013-07-01 13:23:00,
2013-07-01 09:28:00,67.8,66.9,29.90,West,270,0.5,2.7,97,0.05,-RA,,0.11,WeatherDisplay:10.37,2013-07-01 13:28:00,
2013-07-01 09:33:00,67.8,66.9,29.90,West,270,0.7,2.7,97,0.06,-RA,,0.12,WeatherDisplay:10.37,2013-07-01 13:33:00,
2013-07-01 09:38:00,67.5,66.6,29.90,West,270,0.0,4.6,97,0.07,-RA,,0.14,WeatherDisplay:10.37,2013-07-01 13:38:00,
2013-07-01 09:43:00,67.5,66.9,29.91,South,180,0.0,3.5,98,0.09,-RA,,0.16,WeatherDisplay:10.37,2013-07-01 13:43:00,
2013-07-01 09:48:00,67.3,66.7,29.91,NNW,338,4.0,4.6,98,0.11,-RA,,0.20,WeatherDisplay:10.37,2013-07-01 13:48:00,
2013-07-01 09:53:00,67.3,66.7,29.91,NNE,22,1.1,2.7,98,0.13,-RA,,0.22,WeatherDisplay:10.37,2013-07-01 13:53:00,
2013-07-01 09:58:00,67.1,66.5,29.91,North,360,0.0,0.0,98,0.14,-RA,,0.24,WeatherDisplay:10.37,2013-07-01 13:58:00,
2013-07-01 10:03:00,67.1,66.5,29.91,North,360,0.0,0.0,98,0.15,-DZ,,0.25,WeatherDisplay:10.37,2013-07-01 14:03:00,
2013-07-01 10:08:00,67.1,66.5,29.91,North,360,0.0,0.0,98,0.14,-DZ,,0.25,WeatherDisplay:10.37,2013-07-01 14:08:00,
2013-07-01 10:13:00,67.1,66.5,29.91,North,360,0.0,2.3,98,0.14,-DZ,,0.25,WeatherDisplay:10.37,2013-07-01 14:13:00,
2013-07-01 10:18:00,67.3,66.7,29.91,NNE,22,3.0,3.6,98,0.14,-DZ,,0.25,WeatherDisplay:10.37,2013-07-01 14:18:00,
2013-07-01 10:23:00,67.3,66.4,29.91,North,360,2.3,3.5,97,0.14,-DZ,,0.25,WeatherDisplay:10.37,2013-07-01 14:23:00,
2013-07-01 10:28:00,67.3,66.4,29.91,West,270,0.1,2.3,97,0.14,-DZ,,0.25,WeatherDisplay:10.37,2013-07-01 14:28:00,
2013-07-01 10:33:00,67.5,66.6,29.91,WNW,292,0.0,0.0,97,0.13,-RA,,0.25,WeatherDisplay:10.37,2013-07-01 14:33:00,
2013-07-01 10:38:00,67.5,66.6,29.91,WNW,292,0.0,0.0,97,0.11,-RA,,0.25,WeatherDisplay:10.37,2013-07-01 14:38:00,
2013-07-01 10:43:00,67.5,66.3,29.92,WNW,292,0.0,0.0,96,0.09,-RA,,0.25,WeatherDisplay:10.37,2013-07-01 14:43:00,
2013-07-01 10:48:00,67.3,65.8,29.92,North,360,0.5,2.3,95,0.06,-RA,,0.25,WeatherDisplay:10.37,2013-07-01 14:48:00,
2013-07-01 10:53:00,67.5,66.0,29.92,North,360,0.0,0.0,95,0.03,-RA,,0.25,WeatherDisplay:10.37,2013-07-01 14:53:00,
2013-07-01 10:58:00,68.0,66.2,29.92,North,360,0.0,0.0,94,0.01,-RA,,0.25,WeatherDisplay:10.37,2013-07-01 14:58:00,
2013-07-01 11:03:00,68.5,67.0,29.92,North,360,0.0,0.0,95,0.00,-DZ,,0.25,WeatherDisplay:10.37,2013-07-01 15:03:00,
2013-07-01 11:08:00,69.1,67.3,29.92,NE,45,2.0,3.6,94,0.00,-DZ,,0.25,WeatherDisplay:10.37,2013-07-01 15:08:00,
2013-07-01 11:13:00,70.0,67.9,29.92,NNW,338,3.3,4.6,93,0.00,-DZ,,0.25,WeatherDisplay:10.37,2013-07-01 15:13:00,
2013-07-01 11:18:00,70.7,67.3,29.92,NNE,22,0.2,3.5,89,0.00,-DZ,,0.25,WeatherDisplay:10.37,2013-07-01 15:18:00,
2013-07-01 11:23:00,69.3,66.6,29.92,NE,45,2.0,2.7,91,0.00,-DZ,,0.25,WeatherDisplay:10.37,2013-07-01 15:23:00,
2013-07-01 11:28:00,69.8,67.4,29.92,East,90,4.2,4.6,92,0.00,-DZ,,0.25,WeatherDisplay:10.37,2013-07-01 15:28:00,
2013-07-01 11:33:00,70.9,68.5,29.92,ENE,68,4.8,5.8,92,0.00,-DZ,,0.25,WeatherDisplay:10.37,2013-07-01 15:33:00,
2013-07-01 11:38:00,71.6,68.2,29.92,NE,45,4.9,5.8,89,0.00,-DZ,,0.25,WeatherDisplay:10.37,2013-07-01 15:38:00,
2013-07-01 11:43:00,70.9,67.5,29.91,NW,315,3.0,3.6,89,0.00,-DZ,,0.25,WeatherDisplay:10.37,2013-07-01 15:43:00,
2013-07-01 11:48:00,71.2,67.1,29.91,SE,135,3.3,4.6,87,0.00,-DZ,,0.25,WeatherDisplay:10.37,2013-07-01 15:48:00,
2013-07-01 11:53:00,71.4,67.0,29.92,East,90,0.0,4.6,86,0.00,-DZ,,0.25,WeatherDisplay:10.37,2013-07-01 15:53:00,
2013-07-01 11:58:00,72.9,67.4,29.92,ENE,68,4.7,5.8,83,0.00,-DZ,,0.25,WeatherDisplay:10.37,2013-07-01 15:58:00,
2013-07-01 12:03:00,73.0,67.5,29.91,NE,45,5.5,7.0,83,0.00,BKN,,0.25,WeatherDisplay:10.37,2013-07-01 16:03:00,
2013-07-01 12:08:00,73.0,67.5,29.91,NE,45,3.3,5.3,83,0.00,BKN,,0.25,WeatherDisplay:10.37,2013-07-01 16:08:00,
2013-07-01 12:13:00,73.6,67.4,29.91,East,90,0.0,2.3,81,0.00,BKN,,0.25,WeatherDisplay:10.37,2013-07-01 16:13:00,
2013-07-01 12:18:00,74.1,67.2,29.91,WNW,292,2.4,6.9,79,0.00,BKN,,0.25,WeatherDisplay:10.37,2013-07-01 16:18:00,
2013-07-01 12:23:00,74.3,67.7,29.91,NE,45,3.1,4.6,80,0.00,BKN,,0.25,WeatherDisplay:10.37,2013-07-01 16:23:00,
2013-07-01 12:28:00,75.6,67.1,29.90,East,90,5.2,7.0,75,0.00,BKN,,0.25,WeatherDisplay:10.37,2013-07-01 16:28:00,
2013-07-01 12:33:00,75.7,66.0,29.90,ENE,68,4.1,8.1,72,0.00,BKN,,0.25,WeatherDisplay:10.37,2013-07-01 16:33:00,
2013-07-01 12:38:00,76.5,68.0,29.90,NE,45,5.3,7.0,75,0.00,BKN,,0.25,WeatherDisplay:10.37,2013-07-01 16:38:00,
2013-07-01 12:43:00,76.1,66.8,29.89,East,90,5.4,9.2,73,0.00,BKN,,0.25,WeatherDisplay:10.37,2013-07-01 16:43:00,
2013-07-01 12:48:00,77.0,67.7,29.89,ENE,68,4.8,6.1,73,0.00,BKN,,0.25,WeatherDisplay:10.37,2013-07-01 16:48:00,
2013-07-01 12:53:00,76.6,66.5,29.90,NE,45,4.4,6.1,71,0.00,BKN,,0.25,WeatherDisplay:10.37,2013-07-01 16:53:00,
2013-07-01 12:58:00,77.5,67.4,29.90,NW,315,3.8,5.8,71,0.00,BKN,,0.25,WeatherDisplay:10.37,2013-07-01 16:58:00,
2013-07-01 13:03:00,77.4,67.3,29.90,NE,45,3.3,5.8,71,0.00,BKN,,0.25,WeatherDisplay:10.37,2013-07-01 17:03:00,
2013-07-01 13:08:00,77.5,67.4,29.90,NE,45,6.8,9.2,71,0.00,BKN,,0.25,WeatherDisplay:10.37,2013-07-01 17:08:00,
2013-07-01 13:13:00,76.1,66.8,29.90,East,90,4.7,5.8,73,0.00,BKN,,0.25,WeatherDisplay:10.37,2013-07-01 17:13:00,
2013-07-01 13:18:00,77.7,66.7,29.89,North,360,5.5,7.0,69,0.00,BKN,,0.25,WeatherDisplay:10.37,2013-07-01 17:18:00,
2013-07-01 13:23:00,78.8,66.9,29.89,ESE,112,4.4,5.8,67,0.00,BKN,,0.25,WeatherDisplay:10.37,2013-07-01 17:23:00,
2013-07-01 13:28:00,76.5,67.2,29.89,WSW,248,3.7,4.6,73,0.00,BKN,,0.25,WeatherDisplay:10.37,2013-07-01 17:28:00,
2013-07-01 13:33:00,77.2,67.1,29.89,SW,225,4.1,5.8,71,0.00,BKN,,0.25,WeatherDisplay:10.37,2013-07-01 17:33:00,
2013-07-01 13:38:00,78.4,69.0,29.89,North,360,4.5,7.0,73,0.00,BKN,,0.25,WeatherDisplay:10.37,2013-07-01 17:38:00,
2013-07-01 13:43:00,78.8,67.8,29.89,West,270,3.5,8.1,69,0.00,BKN,,0.25,WeatherDisplay:10.37,2013-07-01 17:43:00,
2013-07-01 13:48:00,79.0,68.4,29.89,West,270,4.7,5.8,70,0.00,BKN,,0.25,WeatherDisplay:10.37,2013-07-01 17:48:00,
2013-07-01 13:53:00,79.5,67.1,29.89,ESE,112,1.8,2.7,66,0.00,BKN,,0.25,WeatherDisplay:10.37,2013-07-01 17:53:00,
2013-07-01 13:58:00,77.0,66.9,29.89,West,270,2.7,5.8,71,0.00,BKN,,0.25,WeatherDisplay:10.37,2013-07-01 17:58:00,
2013-07-01 14:03:00,79.5,67.6,29.89,North,360,4.0,4.6,67,0.00,BKN,,0.25,WeatherDisplay:10.37,2013-07-01 18:03:00,
2013-07-01 14:08:00,78.8,66.9,29.89,WNW,292,2.7,3.6,67,0.00,BKN,,0.25,WeatherDisplay:10.37,2013-07-01 18:08:00,
2013-07-01 14:13:00,78.8,66.9,29.89,ENE,68,5.0,6.1,67,0.00,BKN,,0.25,WeatherDisplay:10.37,2013-07-01 18:13:00,
2013-07-01 14:18:00,79.0,67.1,29.89,ENE,68,4.5,5.8,67,0.00,BKN,,0.25,WeatherDisplay:10.37,2013-07-01 18:18:00,
2013-07-01 14:23:00,79.5,68.0,29.89,West,270,3.6,4.6,68,0.00,BKN,,0.25,WeatherDisplay:10.37,2013-07-01 18:23:00,
2013-07-01 14:28:00,79.2,67.7,29.88,SSE,158,3.8,6.9,68,0.00,BKN,,0.25,WeatherDisplay:10.37,2013-07-01 18:28:00,
2013-07-01 14:33:00,79.7,67.8,29.88,West,270,4.5,6.9,67,0.00,BKN,,0.25,WeatherDisplay:10.37,2013-07-01 18:33:00,
2013-07-01 14:39:00,79.9,67.1,29.89,SW,225,0.8,8.1,65,0.00,BKN,,0.25,WeatherDisplay:10.37,2013-07-01 18:39:00,
2013-07-01 14:44:00,81.0,67.7,29.89,ENE,68,4.2,6.1,64,0.00,BKN,,0.25,WeatherDisplay:10.37,2013-07-01 18:44:00,
2013-07-01 14:49:00,81.1,68.7,29.89,ENE,68,1.4,4.4,66,0.00,BKN,,0.25,WeatherDisplay:10.37,2013-07-01 18:49:00,
2013-07-01 14:54:00,80.4,68.0,29.88,North,360,6.0,7.0,66,0.00,BKN,,0.25,WeatherDisplay:10.37,2013-07-01 18:54:00,
2013-07-01 14:59:00,79.9,67.1,29.88,NE,45,5.9,8.1,65,0.00,BKN,,0.25,WeatherDisplay:10.37,2013-07-01 18:59:00,
2013-07-01 15:05:00,79.7,67.3,29.88,NNE,20,3.0,7.0,66,0.00,BKN,BKN,0.25,WeatherDisplay:10.37,2013-07-01 19:05:00,
2013-07-01 15:10:00,80.8,67.9,29.88,WSW,248,6.2,9.5,65,0.00,BKN,,0.25,WeatherDisplay:10.37,2013-07-01 19:10:00,
2013-07-01 15:15:00,79.7,67.8,29.88,West,270,3.9,8.1,67,0.00,BKN,,0.25,WeatherDisplay:10.37,2013-07-01 19:15:00,
2013-07-01 15:20:00,81.3,68.4,29.88,East,90,6.1,11.5,65,0.00,BKN,,0.25,WeatherDisplay:10.37,2013-07-01 19:20:00,
2013-07-01 15:25:00,81.3,68.4,29.88,ENE,68,8.6,10.4,65,0.00,BKN,,0.25,WeatherDisplay:10.37,2013-07-01 19:25:00,
2013-07-01 15:30:00,81.7,68.3,29.88,WSW,248,7.4,9.2,64,0.00,BKN,,0.25,WeatherDisplay:10.37,2013-07-01 19:30:00,
2013-07-01 15:35:00,81.7,67.9,29.88,ENE,68,7.2,9.2,63,0.00,BKN,,0.25,WeatherDisplay:10.37,2013-07-01 19:35:00,
2013-07-01 15:40:00,79.9,67.1,29.89,West,270,2.8,8.1,65,0.00,BKN,,0.25,WeatherDisplay:10.37,2013-07-01 19:40:00,
2013-07-01 15:45:00,80.8,67.0,29.89,North,360,4.7,6.1,63,0.00,BKN,,0.25,WeatherDisplay:10.37,2013-07-01 19:45:00,
2013-07-01 15:50:00,79.5,67.6,29.89,WSW,248,1.5,4.6,67,0.00,BKN,,0.25,WeatherDisplay:10.37,2013-07-01 19:50:00,
2013-07-01 15:55:00,79.0,67.1,29.88,North,360,3.7,5.8,67,0.00,BKN,,0.25,WeatherDisplay:10.37,2013-07-01 19:55:00,
2013-07-01 16:00:00,79.5,67.6,29.88,NE,45,4.3,6.1,67,0.00,BKN,,0.25,WeatherDisplay:10.37,2013-07-01 20:00:00,
2013-07-01 16:05:00,79.5,67.6,29.88,West,270,5.3,8.1,67,0.00,BKN,,0.25,WeatherDisplay:10.37,2013-07-01 20:05:00,
2013-07-01 16:10:00,79.9,66.6,29.88,NNE,22,2.4,5.8,64,0.00,BKN,,0.25,WeatherDisplay:10.37,2013-07-01 20:10:00,
2013-07-01 16:15:00,81.3,67.5,29.88,West,270,8.1,9.5,63,0.00,BKN,,0.25,WeatherDisplay:10.37,2013-07-01 20:15:00,
2013-07-01 16:20:00,82.2,69.3,29.88,SW,225,3.7,5.8,65,0.00,BKN,,0.25,WeatherDisplay:10.37,2013-07-01 20:20:00,
2013-07-01 16:25:00,84.4,68.0,29.88,NNE,22,5.6,6.1,58,0.00,BKN,,0.25,WeatherDisplay:10.37,2013-07-01 20:25:00,
2013-07-01 16:30:00,84.6,70.6,29.88,West,270,2.0,3.5,63,0.00,BKN,,0.25,WeatherDisplay:10.37,2013-07-01 20:30:00,
2013-07-01 16:35:00,83.3,68.9,29.88,NNW,338,4.1,5.8,62,0.00,BKN,,0.25,WeatherDisplay:10.37,2013-07-01 20:35:00,
2013-07-01 16:40:00,84.7,68.3,29.88,SSW,202,3.3,4.6,58,0.00,BKN,,0.25,WeatherDisplay:10.37,2013-07-01 20:40:00,
2013-07-01 16:45:00,87.4,68.7,29.88,NNE,22,3.8,8.1,54,0.00,BKN,,0.25,WeatherDisplay:10.37,2013-07-01 20:45:00,
2013-07-01 16:50:00,87.6,68.4,29.88,NW,315,5.0,9.2,53,0.00,BKN,,0.25,WeatherDisplay:10.37,2013-07-01 20:50:00,
2013-07-01 16:55:00,88.7,68.2,29.88,WNW,292,3.0,4.6,51,0.00,BKN,,0.25,WeatherDisplay:10.37,2013-07-01 20:55:00,
2013-07-01 17:00:00,87.6,68.9,29.88,NE,45,6.1,11.5,54,0.00,BKN,,0.25,WeatherDisplay:10.37,2013-07-01 21:00:00,
2013-07-01 17:05:00,88.3,69.5,29.87,NW,315,4.4,7.8,54,0.00,BKN,,0.25,WeatherDisplay:10.37,2013-07-01 21:05:00,
2013-07-01 17:10:00,88.0,68.2,29.87,NE,45,5.9,7.0,52,0.00,BKN,,0.25,WeatherDisplay:10.37,2013-07-01 21:10:00,
2013-07-01 17:15:00,88.5,68.6,29.87,North,360,6.1,7.0,52,0.00,BKN,,0.25,WeatherDisplay:10.37,2013-07-01 21:15:00,
2013-07-01 17:20:00,87.1,68.4,29.87,NE,45,7.7,12.1,54,0.00,BKN,,0.25,WeatherDisplay:10.37,2013-07-01 21:20:00,
2013-07-01 17:24:00,85.3,67.8,29.87,East,90,9.2,12.9,56,0.00,BKN,,0.25,WeatherDisplay:10.37,2013-07-01 21:24:00,
2013-07-01 17:29:00,83.8,67.4,29.88,NE,45,8.0,9.5,58,0.00,BKN,,0.25,WeatherDisplay:10.37,2013-07-01 21:29:00,
2013-07-01 17:34:00,82.8,67.5,29.88,NNE,22,5.7,7.8,60,0.00,BKN,,0.25,WeatherDisplay:10.37,2013-07-01 21:34:00,
2013-07-01 17:39:00,81.9,66.6,29.88,NE,45,6.1,10.4,60,0.00,BKN,,0.25,WeatherDisplay:10.37,2013-07-01 21:39:00,
2013-07-01 17:44:00,82.6,66.8,29.88,East,90,2.3,4.4,59,0.00,BKN,,0.25,WeatherDisplay:10.37,2013-07-01 21:44:00,
2013-07-01 17:49:00,82.9,67.6,29.88,West,270,3.5,4.4,60,0.00,BKN,,0.25,WeatherDisplay:10.37,2013-07-01 21:49:00,
2013-07-01 17:54:00,83.3,68.0,29.87,NNE,22,3.1,3.6,60,0.00,BKN,,0.25,WeatherDisplay:10.37,2013-07-01 21:54:00,
2013-07-01 17:59:00,83.1,68.7,29.87,West,270,2.8,4.6,62,0.00,BKN,,0.25,WeatherDisplay:10.37,2013-07-01 21:59:00,
2013-07-01 18:04:00,82.9,68.1,29.87,NW,315,4.7,5.8,61,0.00,BKN,,0.25,WeatherDisplay:10.37,2013-07-01 22:04:00,
2013-07-01 18:09:00,82.0,67.2,29.87,East,90,5.6,8.1,61,0.00,BKN,,0.25,WeatherDisplay:10.37,2013-07-01 22:09:00,
2013-07-01 18:14:00,81.3,67.5,29.87,East,90,9.3,12.9,63,0.00,BKN,,0.25,WeatherDisplay:10.37,2013-07-01 22:14:00,
2013-07-01 18:19:00,81.3,67.5,29.87,ENE,68,8.0,10.4,63,0.00,BKN,,0.25,WeatherDisplay:10.37,2013-07-01 22:19:00,
2013-07-01 18:24:00,81.3,68.0,29.87,ESE,112,4.3,6.1,64,0.00,BKN,,0.25,WeatherDisplay:10.37,2013-07-01 22:24:00,
2013-07-01 18:29:00,81.5,68.1,29.87,North,360,4.5,7.0,64,0.00,BKN,,0.25,WeatherDisplay:10.37,2013-07-01 22:29:00,
2013-07-01 18:34:00,81.9,68.5,29.87,East,90,9.3,12.1,64,0.00,BKN,,0.25,WeatherDisplay:10.37,2013-07-01 22:34:00,
2013-07-01 18:39:00,81.0,68.1,29.88,ENE,68,8.6,12.9,65,0.00,BKN,,0.25,WeatherDisplay:10.37,2013-07-01 22:39:00,
2013-07-01 18:44:00,81.1,68.7,29.88,ENE,68,11.0,11.5,66,0.00,BKN,,0.25,WeatherDisplay:10.37,2013-07-01 22:44:00,
2013-07-01 18:49:00,81.0,69.4,29.88,NNE,22,5.2,8.7,68,0.00,BKN,,0.25,WeatherDisplay:10.37,2013-07-01 22:49:00,
2013-07-01 18:54:00,80.6,69.5,29.88,NNE,22,8.3,15.0,69,0.00,BKN,,0.25,WeatherDisplay:10.37,2013-07-01 22:54:00,
2013-07-01 18:59:00,80.6,69.5,29.88,NE,45,9.2,13.8,69,0.00,BKN,,0.25,WeatherDisplay:10.37,2013-07-01 22:59:00,
2013-07-01 19:04:00,80.6,69.5,29.88,NE,45,7.1,12.7,69,0.00,BKN,,0.25,WeatherDisplay:10.37,2013-07-01 23:04:00,
2013-07-01 19:09:00,80.6,69.1,29.88,ENE,68,6.2,11.5,68,0.00,BKN,,0.25,WeatherDisplay:10.37,2013-07-01 23:09:00,
2013-07-01 19:14:00,81.3,69.7,29.88,NNW,338,3.0,9.2,68,0.00,BKN,,0.25,WeatherDisplay:10.37,2013-07-01 23:14:00,
2013-07-01 19:19:00,81.1,69.5,29.89,ENE,68,6.0,8.1,68,0.00,BKN,,0.25,WeatherDisplay:10.37,2013-07-01 23:19:00,
2013-07-01 19:24:00,80.6,69.5,29.89,ENE,68,5.2,9.2,69,0.00,BKN,,0.25,WeatherDisplay:10.37,2013-07-01 23:24:00,
2013-07-01 19:29:00,80.1,69.8,29.89,East,90,4.8,9.2,71,0.00,BKN,,0.25,WeatherDisplay:10.37,2013-07-01 23:29:00,
2013-07-01 19:34:00,77.7,71.4,29.89,SSW,202,3.7,6.1,81,0.03,RA,,0.30,WeatherDisplay:10.37,2013-07-01 23:34:00,
2013-07-01 19:39:00,75.0,70.5,29.89,WSW,248,1.5,6.9,86,0.08,RA,,0.34,WeatherDisplay:10.37,2013-07-01 23:39:00,
2013-07-01 19:44:00,75.2,70.4,29.90,SSE,158,0.0,0.0,85,0.11,RA,,0.36,WeatherDisplay:10.37,2013-07-01 23:44:00,
2013-07-01 19:49:00,75.0,70.5,29.90,NE,45,3.7,4.6,86,0.12,RA,,0.37,WeatherDisplay:10.37,2013-07-01 23:49:00,
2013-07-01 19:54:00,74.3,70.2,29.90,ESE,112,4.0,5.3,87,0.12,RA,,0.37,WeatherDisplay:10.37,2013-07-01 23:54:00,
2013-07-01 19:59:00,74.1,71.0,29.90,NE,45,2.7,2.7,90,0.12,RA,,0.37,WeatherDisplay:10.37,2013-07-01 23:59:00,
2013-07-01 20:04:00,73.8,71.0,29.91,NE,45,0.0,0.0,91,0.12,BKN,,0.37,WeatherDisplay:10.37,2013-07-02 00:04:00,
2013-07-01 20:09:00,73.4,70.6,29.91,NNE,22,0.0,0.0,91,0.12,BKN,,0.37,WeatherDisplay:10.37,2013-07-02 00:09:00,
2013-07-01 20:14:00,73.2,70.7,29.91,NNE,22,3.0,4.6,92,0.12,BKN,,0.37,WeatherDisplay:10.37,2013-07-02 00:14:00,
2013-07-01 20:19:00,73.2,71.1,29.90,ENE,68,0.0,2.3,93,0.12,BKN,,0.37,WeatherDisplay:10.37,2013-07-02 00:19:00,
2013-07-01 20:24:00,72.9,70.4,29.90,ENE,68,3.2,6.9,92,0.12,BKN,,0.37,WeatherDisplay:10.37,2013-07-02 00:24:00,
2013-07-01 20:29:00,72.7,70.2,29.91,North,360,4.3,5.8,92,0.12,BKN,,0.37,WeatherDisplay:10.37,2013-07-02 00:29:00,
2013-07-01 20:34:00,72.5,70.4,29.91,East,90,3.0,5.8,93,0.09,BKN,,0.37,WeatherDisplay:10.37,2013-07-02 00:34:00,
2013-07-01 20:39:00,72.1,69.6,29.91,NNE,22,4.7,7.0,92,0.04,BKN,,0.37,WeatherDisplay:10.37,2013-07-02 00:39:00,
2013-07-01 20:44:00,72.1,69.6,29.91,NNE,22,6.2,8.1,92,0.01,BKN,,0.37,WeatherDisplay:10.37,2013-07-02 00:44:00,
2013-07-01 20:49:00,72.1,69.6,29.91,NNE,22,1.9,2.3,92,0.00,BKN,,0.37,WeatherDisplay:10.37,2013-07-02 00:49:00,
2013-07-01 20:54:00,72.1,69.6,29.91,NNE,22,1.2,2.3,92,0.00,BKN,,0.37,WeatherDisplay:10.37,2013-07-02 00:54:00,
2013-07-01 20:59:00,71.8,69.7,29.91,NNE,22,0.0,0.0,93,0.00,BKN,,0.37,WeatherDisplay:10.37,2013-07-02 00:59:00,
2013-07-01 21:04:00,71.6,69.8,29.91,NNE,22,0.0,0.0,94,0.00,BKN,,0.37,WeatherDisplay:10.37,2013-07-02 01:04:00,
2013-07-01 21:09:00,71.2,69.4,29.91,NE,45,4.2,5.8,94,0.00,BKN,,0.37,WeatherDisplay:10.37,2013-07-02 01:09:00,
2013-07-01 21:14:00,71.1,69.3,29.91,NE,45,3.0,8.1,94,0.00,BKN,,0.37,WeatherDisplay:10.37,2013-07-02 01:14:00,
2013-07-01 21:19:00,71.2,69.4,29.91,NNE,22,0.4,3.5,94,0.00,BKN,,0.37,WeatherDisplay:10.37,2013-07-02 01:19:00,
2013-07-01 21:24:00,70.9,69.4,29.91,ENE,68,5.8,6.1,95,0.00,BKN,,0.37,WeatherDisplay:10.37,2013-07-02 01:24:00,
2013-07-01 21:29:00,70.9,69.1,29.91,North,360,4.7,6.1,94,0.00,BKN,,0.37,WeatherDisplay:10.37,2013-07-02 01:29:00,
2013-07-01 21:34:00,70.9,69.1,29.91,NE,52,3.0,7.0,94,0.00,BKN,BKN,0.37,WeatherDisplay:10.37,2013-07-02 01:34:00,
2013-07-01 21:40:00,70.9,69.1,29.92,NE,47,5.0,8.0,94,0.00,BKN,BKN,0.37,WeatherDisplay:10.37,2013-07-02 01:40:00,
2013-07-01 21:45:00,70.9,68.8,29.92,NE,45,3.8,7.0,93,0.00,BKN,,0.37,WeatherDisplay:10.37,2013-07-02 01:45:00,
2013-07-01 21:50:00,70.7,68.9,29.92,NW,315,0.4,4.4,94,0.00,BKN,,0.37,WeatherDisplay:10.37,2013-07-02 01:50:00,
2013-07-01 21:55:00,70.9,68.8,29.92,West,270,2.8,5.3,93,0.00,BKN,,0.39,WeatherDisplay:10.37,2013-07-02 01:55:00,
2013-07-01 22:00:00,70.3,68.8,29.92,WSW,248,5.0,8.1,95,0.04,RA,,0.51,WeatherDisplay:10.37,2013-07-02 02:00:00,
2013-07-01 22:05:00,69.8,68.9,29.95,WSW,248,4.3,5.8,97,0.40,RA,,0.79,WeatherDisplay:10.37,2013-07-02 02:05:00,
2013-07-01 22:10:00,69.1,67.9,29.95,West,270,2.7,6.9,96,0.49,RA,,0.86,WeatherDisplay:10.37,2013-07-02 02:10:00,
2013-07-01 22:15:00,69.1,67.9,29.95,NNE,22,0.9,3.6,96,0.54,RA,,0.93,WeatherDisplay:10.37,2013-07-02 02:15:00,
2013-07-01 22:20:00,69.1,68.2,29.94,NNE,22,3.5,3.6,97,0.57,RA,,0.94,WeatherDisplay:10.37,2013-07-02 02:20:00,
2013-07-01 22:25:00,68.7,68.4,29.94,NNE,22,2.5,3.5,99,0.76,RA,,1.16,WeatherDisplay:10.37,2013-07-02 02:25:00,
2013-07-01 22:30:00,68.0,67.4,29.95,SW,225,7.9,9.5,98,0.91,RA,,1.41,WeatherDisplay:10.37,2013-07-02 02:30:00,
2013-07-01 22:35:00,66.0,63.3,29.95,East,90,19.2,24.8,91,1.46,RA,,1.97,WeatherDisplay:10.37,2013-07-02 02:35:00,
2013-07-01 22:40:00,66.0,63.3,29.94,NNW,338,5.7,17.3,91,1.70,RA,,2.08,WeatherDisplay:10.37,2013-07-02 02:40:00,
2013-07-01 22:45:00,65.1,63.9,29.94,SSE,158,3.8,6.1,96,1.71,RA,,2.09,WeatherDisplay:10.37,2013-07-02 02:45:00,
2013-07-01 22:50:00,65.3,64.4,29.94,SSE,158,0.8,4.6,97,1.75,RA,,2.13,WeatherDisplay:10.37,2013-07-02 02:50:00,
2013-07-01 22:55:00,65.5,64.9,29.96,SSE,158,0.0,0.0,98,1.80,RA,,2.17,WeatherDisplay:10.37,2013-07-02 02:55:00,
2013-07-01 23:00:00,65.7,65.4,29.96,SE,135,1.9,3.5,99,1.78,RA,,2.19,WeatherDisplay:10.37,2013-07-02 03:00:00,
2013-07-01 23:05:00,65.7,65.4,29.95,ESE,112,1.9,2.7,99,1.43,RA,,2.20,WeatherDisplay:10.37,2013-07-02 03:05:00,
2013-07-01 23:10:00,65.7,65.7,29.95,SE,135,2.2,3.6,100,1.34,RA,,2.20,WeatherDisplay:10.37,2013-07-02 03:10:00,
2013-07-01 23:15:00,65.8,65.8,29.95,SE,135,3.1,3.6,100,1.32,RA,,2.23,WeatherDisplay:10.37,2013-07-02 03:15:00,
2013-07-01 23:20:00,66.0,66.0,29.95,SE,135,2.3,2.7,100,1.30,RA,,2.24,WeatherDisplay:10.37,2013-07-02 03:20:00,
2013-07-01 23:25:00,66.0,66.0,29.95,SE,135,1.3,2.7,100,1.11,RA,,2.24,WeatherDisplay:10.37,2013-07-02 03:25:00,
2013-07-01 23:30:00,66.0,66.0,29.96,SSE,158,3.0,4.4,100,1.01,RA,,2.29,WeatherDisplay:10.37,2013-07-02 03:30:00,
2013-07-01 23:35:00,66.0,66.0,29.96,East,90,4.7,5.8,100,0.47,RA,,2.30,WeatherDisplay:10.37,2013-07-02 03:35:00,
2013-07-01 23:40:00,66.0,66.0,29.95,East,90,0.9,3.5,100,0.23,RA,,2.30,WeatherDisplay:10.37,2013-07-02 03:40:00,
2013-07-01 23:45:00,66.0,66.0,29.95,East,90,0.0,0.0,100,0.22,RA,,2.30,WeatherDisplay:10.37,2013-07-02 03:45:00,
2013-07-01 23:50:00,66.0,66.0,29.95,East,90,0.0,2.3,100,0.18,BKN,,2.30,WeatherDisplay:10.37,2013-07-02 03:50:00,
2013-07-01 23:55:00,66.0,66.0,29.95,East,90,0.0,0.0,100,0.13,BKN,,2.30,WeatherDisplay:10.37,2013-07-02 03:55:00,